Regional Weather Roundup
Issued by NWS

Home | Current Version | Previous Version | Text Only | Print | Product List | Glossary Off
Versions: 1 2 3 4 5 6 7 8 9 10 11 12 13 14 15 16 17 18 19 20 21 22 23 24 25 26 27 28 29 30 31 32 33 34 35 36 37 38 39 40 41 42 43 44 45 46 47 48 49 50

000
ASUS43 KLSX 260859
RWRMO

WEATHER SUMMARY FOR MISSOURI
NATIONAL WEATHER SERVICE SPRINGFIELD MO
400 AM CDT SAT JUL 26 2014

NOTE: "FAIR" INDICATES FEW OR NO CLOUDS BELOW 12,000 FEET WITH NO
       SIGNIFICANT WEATHER AND/OR OBSTRUCTIONS TO VISIBILITY.
       CURRENT SKY AND/OR WEATHER CONDITIONS ARE NOT AVAILABLE FOR
       CHILLICOTHE AND FARMINGTON.

MOZ001>031-035>038-043-044-053-054-261000-
...NORTHERN AND WESTERN MISSOURI...

CITY           SKY/WX    TMP DP  RH WIND       PRES   REMARKS
KANSAS CTY INT CLEAR     79  71  76 SW15      29.80S
KANSAS C DTWN  CLEAR     83  71  67 SW17G25   29.79S
LEE`S SUMMIT   CLEAR     79  71  76 SW13G21   29.83S
ST JOSEPH      PTCLDY    74  72  93 N3        29.80R
CHILLICOTHE      N/A     76  72  87 CALM      29.81R
KIRKSVILLE     CLEAR     75  71  87 SW7       29.81S

$$
MOZ066>068-077>081-088>096-101>105-261000-
...SOUTHWEST MISSOURI...

CITY           SKY/WX    TMP DP  RH WIND       PRES   REMARKS
SPRINGFIELD    PTCLDY    73  71  93 S12       29.92S
JOPLIN         CLEAR     77  71  82 SW14      29.90R

$$
MOZ032>034-039>042-045>050-055>058-069>072-261000-
...CENTRAL MISSOURI...

CITY           SKY/WX    TMP DP  RH WIND       PRES   REMARKS
COLUMBIA       CLEAR     74  71  91 S8        29.86S
JEFFERSON CITY PTCLDY    75  70  84 SE6       29.85S
ROLLA          PTCLDY    72  69  90 S13       29.89S
SEDALIA        CLEAR     79  71  76 SW15G23   29.84S
OSAGE BEACH    PTCLDY    73  70  88 S7        29.88S

$$
MOZ051-052-059>065-261000-
...EAST CENTRAL MISSOURI...

CITY           SKY/WX    TMP DP  RH WIND       PRES   REMARKS
ST LOUIS INTL  MOCLDY    73  65  75 S6        29.89F
SPIRIT OF STL  MOCLDY    74  67  78 CALM      29.87S
ST CHARLES     MOCLDY    68  66  93 E3        29.87S

$$
MOZ072>076-082>087-097>100-106>115-261000-
...SOUTH CENTRAL AND SOUTHEAST MISSOURI...

CITY           SKY/WX    TMP DP  RH WIND       PRES   REMARKS
CAPE GIRARDEAU CLEAR     67  64  90 S5        29.94F
FARMINGTON     CLEAR     70  66  88 S7        29.94S
POPLAR BLUFF   CLEAR     67  63  87 CALM      29.93F
WEST PLAINS    CLEAR     70  68  93 SW5       29.97F

$$


USA.gov is the U.S. government's official web portal to all federal, state and local government web resources and services.